Time,TemperatureF,DewpointF,PressureIn,WindDirection,WindDirectionDegrees,WindSpeedMPH,WindSpeedGustMPH,Humidity,HourlyPrecipIn,Conditions,Clouds,dailyrainin,SoftwareType,DateUTC
2013-02-26 00:02:00,32.7,31.5,30.60,NE,45,2.0,2.0,95,0.00,,,0.00,meteohub,2013-02-26 00:02:00,
2013-02-26 00:07:00,32.5,31.3,30.60,NE,45,2.0,2.0,95,0.00,,,0.00,meteohub,2013-02-26 00:07:00,
2013-02-26 00:12:00,32.5,31.3,30.60,NE,45,0.0,2.0,95,0.00,,,0.00,meteohub,2013-02-26 00:12:00,
2013-02-26 00:17:00,32.4,31.1,30.60,WNW,292,0.0,2.0,95,0.00,,,0.00,meteohub,2013-02-26 00:17:00,
2013-02-26 00:22:00,32.2,30.9,30.60,WNW,292,0.0,2.0,95,0.00,,,0.00,meteohub,2013-02-26 00:22:00,
2013-02-26 00:27:00,32.2,30.9,30.60,NW,315,2.0,2.0,95,0.00,,,0.00,meteohub,2013-02-26 00:27:00,
2013-02-26 00:32:00,32.0,30.7,30.60,NNW,337,2.0,2.0,95,0.00,,,0.00,meteohub,2013-02-26 00:32:00,
2013-02-26 00:37:00,31.8,30.6,30.60,North,0,3.0,3.0,95,0.00,,,0.00,meteohub,2013-02-26 00:37:00,
2013-02-26 00:42:00,31.8,30.6,30.60,NNE,22,3.0,4.0,95,0.00,,,0.00,meteohub,2013-02-26 00:42:00,
2013-02-26 00:48:00,32.0,30.7,30.60,NNE,22,2.0,4.0,95,0.00,,,0.00,meteohub,2013-02-26 00:48:00,
2013-02-26 00:53:00,32.0,30.9,30.60,North,0,2.0,4.0,96,0.00,,,0.00,meteohub,2013-02-26 00:53:00,
2013-02-26 00:58:00,32.0,30.9,30.60,NNE,22,2.0,4.0,96,0.00,,,0.00,meteohub,2013-02-26 00:58:00,
2013-02-26 01:03:00,32.0,30.9,30.60,NNE,22,3.0,3.0,96,0.00,,,0.00,meteohub,2013-02-26 01:03:00,
2013-02-26 01:08:00,32.0,30.9,30.60,NNE,22,2.0,3.0,96,0.00,,,0.00,meteohub,2013-02-26 01:08:00,
2013-02-26 01:13:00,32.0,30.9,30.60,NE,45,1.0,3.0,96,0.00,,,0.00,meteohub,2013-02-26 01:13:00,
2013-02-26 01:18:00,32.0,30.9,30.60,NNE,22,2.0,3.0,96,0.00,,,0.00,meteohub,2013-02-26 01:18:00,
2013-02-26 01:23:00,31.8,30.7,30.60,North,0,1.0,3.0,96,0.00,,,0.00,meteohub,2013-02-26 01:23:00,
2013-02-26 01:28:00,31.6,30.6,30.60,North,0,1.0,3.0,96,0.00,,,0.00,meteohub,2013-02-26 01:28:00,
2013-02-26 01:34:00,31.5,30.4,30.60,North,0,0.0,2.0,96,0.00,,,0.00,meteohub,2013-02-26 01:34:00,
2013-02-26 01:39:00,31.5,30.4,30.60,NNW,337,2.0,2.0,96,0.00,,,0.00,meteohub,2013-02-26 01:39:00,
2013-02-26 01:44:00,31.5,30.4,30.60,NNE,22,1.0,2.0,96,0.00,,,0.00,meteohub,2013-02-26 01:44:00,
2013-02-26 01:49:00,31.5,30.4,30.60,North,0,2.0,3.0,96,0.00,,,0.00,meteohub,2013-02-26 01:49:00,
2013-02-26 01:54:00,31.6,30.6,30.60,NNE,22,2.0,3.0,96,0.00,,,0.00,meteohub,2013-02-26 01:54:00,
2013-02-26 01:59:00,31.8,30.7,30.60,NNE,22,2.0,3.0,96,0.00,,,0.00,meteohub,2013-02-26 01:59:00,
2013-02-26 02:04:00,32.0,31.3,30.60,NNE,22,3.0,3.0,97,0.00,,,0.00,meteohub,2013-02-26 02:04:00,
2013-02-26 02:10:00,32.2,31.5,30.60,NNE,22,2.0,4.0,97,0.00,,,0.00,meteohub,2013-02-26 02:10:00,
2013-02-26 02:15:00,32.4,31.6,30.60,ENE,67,0.0,4.0,97,0.00,,,0.00,meteohub,2013-02-26 02:15:00,
2013-02-26 02:20:00,32.5,31.8,30.60,North,0,0.0,3.0,97,0.00,,,0.00,meteohub,2013-02-26 02:20:00,
2013-02-26 02:25:00,32.5,31.8,30.60,West,270,0.0,2.0,97,0.00,,,0.00,meteohub,2013-02-26 02:25:00,
2013-02-26 02:30:00,32.5,31.8,30.60,West,270,2.0,2.0,97,0.00,,,0.00,meteohub,2013-02-26 02:30:00,
2013-02-26 02:35:00,32.7,32.0,30.60,WNW,292,1.0,3.0,97,0.00,,,0.00,meteohub,2013-02-26 02:35:00,
2013-02-26 02:41:00,32.7,32.0,30.60,NW,315,0.0,3.0,97,0.00,,,0.00,meteohub,2013-02-26 02:41:00,
2013-02-26 02:46:00,32.7,32.0,30.60,NW,315,1.0,3.0,97,0.00,,,0.00,meteohub,2013-02-26 02:46:00,
2013-02-26 02:51:00,32.7,32.0,30.60,NNW,337,3.0,3.0,97,0.00,,,0.00,meteohub,2013-02-26 02:51:00,
2013-02-26 02:56:00,32.9,32.2,30.60,North,0,3.0,4.0,97,0.00,,,0.00,meteohub,2013-02-26 02:56:00,
2013-02-26 03:01:00,32.9,32.2,30.60,North,0,1.0,4.0,97,0.00,,,0.00,meteohub,2013-02-26 03:01:00,
2013-02-26 03:06:00,33.1,32.5,30.60,North,0,2.0,4.0,98,0.00,,,0.00,meteohub,2013-02-26 03:06:00,
2013-02-26 03:11:00,33.1,32.5,30.60,NNW,337,2.0,3.0,98,0.00,,,0.00,meteohub,2013-02-26 03:11:00,
2013-02-26 03:16:00,33.1,32.5,30.60,North,0,3.0,4.0,98,0.00,,,0.00,meteohub,2013-02-26 03:16:00,
2013-02-26 03:21:00,33.3,32.7,30.60,NE,45,4.0,6.0,98,0.00,,,0.00,meteohub,2013-02-26 03:21:00,
2013-02-26 03:26:00,33.3,32.7,30.60,NE,45,5.0,6.0,98,0.00,,,0.00,meteohub,2013-02-26 03:26:00,
2013-02-26 03:32:00,33.4,32.9,30.60,NNE,22,4.0,6.0,98,0.00,,,0.00,meteohub,2013-02-26 03:32:00,
2013-02-26 03:37:00,33.4,32.9,30.60,NE,45,2.0,5.0,98,0.00,,,0.00,meteohub,2013-02-26 03:37:00,
2013-02-26 03:42:00,33.6,33.1,30.60,NE,45,3.0,5.0,98,0.00,,,0.00,meteohub,2013-02-26 03:42:00,
2013-02-26 03:47:00,33.6,33.1,30.60,NE,45,4.0,4.0,98,0.00,,,0.00,meteohub,2013-02-26 03:47:00,
2013-02-26 03:52:00,33.6,33.1,30.60,NNE,22,4.0,4.0,98,0.00,,,0.00,meteohub,2013-02-26 03:52:00,
2013-02-26 03:57:00,33.6,33.1,30.60,NE,45,3.0,4.0,98,0.00,,,0.00,meteohub,2013-02-26 03:57:00,
2013-02-26 04:02:00,33.6,33.1,30.60,NNE,22,4.0,4.0,98,0.00,,,0.00,meteohub,2013-02-26 04:02:00,
2013-02-26 04:07:00,33.6,33.1,30.60,ENE,67,2.0,4.0,98,0.00,,,0.00,meteohub,2013-02-26 04:07:00,
2013-02-26 04:12:00,33.6,33.1,30.60,NNE,22,4.0,4.0,98,0.00,,,0.00,meteohub,2013-02-26 04:12:00,
2013-02-26 04:17:00,33.6,33.1,30.60,North,0,2.0,5.0,98,0.00,,,0.00,meteohub,2013-02-26 04:17:00,
2013-02-26 04:22:00,33.6,33.1,30.60,North,0,4.0,5.0,98,0.00,,,0.00,meteohub,2013-02-26 04:22:00,
2013-02-26 04:27:00,33.8,33.3,30.60,NNE,22,5.0,5.0,98,0.00,,,0.00,meteohub,2013-02-26 04:27:00,
2013-02-26 04:32:00,33.8,33.3,30.60,NNE,22,3.0,6.0,98,0.00,,,0.00,meteohub,2013-02-26 04:32:00,
2013-02-26 04:37:00,33.8,33.3,30.60,ENE,67,3.0,6.0,98,0.00,,,0.00,meteohub,2013-02-26 04:37:00,
2013-02-26 04:42:00,34.0,33.4,30.60,NE,45,4.0,6.0,98,0.00,,,0.00,meteohub,2013-02-26 04:42:00,
2013-02-26 04:47:00,34.0,33.4,30.60,ENE,67,4.0,6.0,98,0.00,,,0.00,meteohub,2013-02-26 04:47:00,
2013-02-26 04:53:00,34.0,33.4,30.60,ENE,67,3.0,5.0,98,0.00,,,0.00,meteohub,2013-02-26 04:53:00,
2013-02-26 04:58:00,34.0,33.4,30.60,NE,45,2.0,4.0,98,0.00,,,0.00,meteohub,2013-02-26 04:58:00,
2013-02-26 05:00:00,34.0,33.4,30.60,ENE,67,4.0,4.0,98,0.00,,,0.00,meteohub,2013-02-26 05:00:00,
2013-02-26 05:01:00,34.0,33.4,30.60,NE,45,3.0,4.0,98,0.00,,,0.00,meteohub,2013-02-26 05:01:00,
2013-02-26 05:06:00,34.0,33.4,30.60,ENE,67,3.0,4.0,98,0.00,,,0.00,meteohub,2013-02-26 05:06:00,
2013-02-26 05:11:00,34.0,33.4,30.60,NE,45,2.0,4.0,98,0.00,,,0.00,meteohub,2013-02-26 05:11:00,
2013-02-26 05:17:00,34.0,33.4,30.60,ENE,67,3.0,4.0,98,0.00,,,0.00,meteohub,2013-02-26 05:17:00,
2013-02-26 05:22:00,34.0,33.4,30.60,NE,45,1.0,4.0,98,0.00,,,0.00,meteohub,2013-02-26 05:22:00,
2013-02-26 05:27:00,34.0,33.4,30.60,NNE,22,3.0,4.0,98,0.00,,,0.00,meteohub,2013-02-26 05:27:00,
2013-02-26 05:32:00,34.0,33.4,30.60,NE,45,3.0,5.0,98,0.00,,,0.00,meteohub,2013-02-26 05:32:00,
2013-02-26 05:37:00,34.0,33.4,30.60,NE,45,2.0,5.0,98,0.00,,,0.00,meteohub,2013-02-26 05:37:00,
2013-02-26 05:42:00,34.0,33.4,30.60,NE,45,2.0,5.0,98,0.00,,,0.00,meteohub,2013-02-26 05:42:00,
2013-02-26 05:47:00,34.0,33.4,30.60,NE,45,2.0,4.0,98,0.00,,,0.00,meteohub,2013-02-26 05:47:00,
2013-02-26 05:52:00,34.0,33.4,30.60,North,0,0.0,4.0,98,0.00,,,0.00,meteohub,2013-02-26 05:52:00,
2013-02-26 05:57:00,34.0,33.4,30.60,NNE,22,0.0,4.0,98,0.00,,,0.00,meteohub,2013-02-26 05:57:00,
2013-02-26 06:02:00,33.8,33.3,30.60,NNE,22,1.0,3.0,98,0.00,,,0.00,meteohub,2013-02-26 06:02:00,
2013-02-26 06:07:00,33.6,33.1,30.60,North,0,0.0,3.0,98,0.00,,,0.00,meteohub,2013-02-26 06:07:00,
2013-02-26 06:12:00,33.6,33.1,30.60,North,0,2.0,3.0,98,0.00,,,0.00,meteohub,2013-02-26 06:12:00,
2013-02-26 06:17:00,33.3,32.7,30.63,North,0,3.0,3.0,98,0.00,,,0.00,meteohub,2013-02-26 06:17:00,
2013-02-26 06:22:00,33.1,32.5,30.63,North,0,3.0,3.0,98,0.00,,,0.00,meteohub,2013-02-26 06:22:00,
2013-02-26 06:27:00,33.1,32.5,30.63,NNE,22,2.0,3.0,98,0.00,,,0.00,meteohub,2013-02-26 06:27:00,
2013-02-26 06:32:00,32.9,32.4,30.63,NNE,22,1.0,3.0,98,0.00,,,0.00,meteohub,2013-02-26 06:32:00,
2013-02-26 06:37:00,32.9,32.4,30.63,North,0,0.0,3.0,98,0.00,,,0.00,meteohub,2013-02-26 06:37:00,
2013-02-26 06:42:00,32.7,32.2,30.63,NE,45,0.0,3.0,98,0.00,,,0.00,meteohub,2013-02-26 06:42:00,
2013-02-26 06:47:00,32.7,32.2,30.63,NE,45,0.0,3.0,98,0.00,,,0.00,meteohub,2013-02-26 06:47:00,
2013-02-26 06:52:00,32.5,32.0,30.63,NE,45,0.0,3.0,98,0.00,,,0.00,meteohub,2013-02-26 06:52:00,
2013-02-26 06:57:00,32.5,32.0,30.63,NE,45,0.0,2.0,98,0.00,,,0.00,meteohub,2013-02-26 06:57:00,
2013-02-26 07:02:00,32.4,31.8,30.63,NE,45,0.0,0.0,98,0.00,,,0.00,meteohub,2013-02-26 07:02:00,
2013-02-26 07:08:00,32.4,31.8,30.63,NE,45,0.0,0.0,98,0.00,,,0.00,meteohub,2013-02-26 07:08:00,
2013-02-26 07:13:00,32.2,31.6,30.63,NE,45,0.0,0.0,98,0.00,,,0.00,meteohub,2013-02-26 07:13:00,
2013-02-26 07:18:00,32.2,31.6,30.63,North,0,0.0,0.0,98,0.00,,,0.00,meteohub,2013-02-26 07:18:00,
2013-02-26 07:23:00,32.0,31.5,30.63,North,0,0.0,1.0,98,0.00,,,0.00,meteohub,2013-02-26 07:23:00,
2013-02-26 07:28:00,31.8,31.3,30.63,North,0,2.0,2.0,98,0.00,,,0.00,meteohub,2013-02-26 07:28:00,
2013-02-26 07:33:00,31.6,31.1,30.63,NNW,337,1.0,2.0,98,0.00,,,0.00,meteohub,2013-02-26 07:33:00,
2013-02-26 07:38:00,31.6,31.1,30.63,NW,315,0.0,2.0,98,0.00,,,0.00,meteohub,2013-02-26 07:38:00,
2013-02-26 07:43:00,31.5,30.9,30.63,NW,315,0.0,2.0,98,0.00,,,0.00,meteohub,2013-02-26 07:43:00,
2013-02-26 07:48:00,31.5,30.9,30.63,NW,315,0.0,2.0,98,0.00,,,0.00,meteohub,2013-02-26 07:48:00,
2013-02-26 07:53:00,31.5,30.9,30.63,NE,45,0.0,1.0,98,0.00,,,0.00,meteohub,2013-02-26 07:53:00,
2013-02-26 07:58:00,31.5,30.9,30.63,NNE,22,2.0,2.0,98,0.00,,,0.00,meteohub,2013-02-26 07:58:00,
2013-02-26 08:03:00,31.6,31.1,30.63,NNE,22,0.0,2.0,98,0.00,,,0.00,meteohub,2013-02-26 08:03:00,
2013-02-26 08:09:00,31.8,31.3,30.63,NNE,22,2.0,2.0,98,0.00,,,0.00,meteohub,2013-02-26 08:09:00,
2013-02-26 08:14:00,32.0,31.5,30.63,ENE,67,0.0,2.0,98,0.00,,,0.00,meteohub,2013-02-26 08:14:00,
2013-02-26 08:19:00,32.2,31.6,30.63,NE,45,1.0,3.0,98,0.00,,,0.00,meteohub,2013-02-26 08:19:00,
2013-02-26 08:24:00,32.4,31.8,30.63,North,0,0.0,3.0,98,0.00,,,0.00,meteohub,2013-02-26 08:24:00,
2013-02-26 08:29:00,32.4,31.8,30.63,NNW,337,0.0,3.0,98,0.00,,,0.00,meteohub,2013-02-26 08:29:00,
2013-02-26 08:34:00,32.5,32.0,30.63,WNW,292,0.0,2.0,98,0.00,,,0.00,meteohub,2013-02-26 08:34:00,
2013-02-26 08:39:00,32.5,32.0,30.63,WNW,292,0.0,1.0,98,0.00,,,0.00,meteohub,2013-02-26 08:39:00,
2013-02-26 08:44:00,32.7,32.2,30.63,ENE,67,0.0,0.0,98,0.00,,,0.00,meteohub,2013-02-26 08:44:00,
2013-02-26 08:49:00,32.9,32.4,30.63,North,0,1.0,3.0,98,0.00,,,0.00,meteohub,2013-02-26 08:49:00,
2013-02-26 08:54:00,33.1,32.5,30.63,NNE,22,1.0,3.0,98,0.00,,,0.00,meteohub,2013-02-26 08:54:00,
2013-02-26 08:59:00,33.6,33.1,30.63,NE,45,2.0,3.0,98,0.00,,,0.00,meteohub,2013-02-26 08:59:00,
2013-02-26 09:05:00,34.0,33.4,30.63,NE,45,2.0,3.0,98,0.00,,,0.00,meteohub,2013-02-26 09:05:00,
2013-02-26 09:10:00,34.3,33.8,30.63,NNE,22,2.0,3.0,98,0.00,,,0.00,meteohub,2013-02-26 09:10:00,
2013-02-26 09:15:00,33.6,33.1,30.63,NNE,22,1.0,4.0,98,0.00,,,0.00,meteohub,2013-02-26 09:15:00,
2013-02-26 09:20:00,34.9,34.3,30.63,ENE,67,3.0,4.0,98,0.00,,,0.00,meteohub,2013-02-26 09:20:00,
2013-02-26 09:25:00,35.1,34.5,30.63,NNE,22,3.0,4.0,98,0.00,,,0.00,meteohub,2013-02-26 09:25:00,
2013-02-26 09:30:00,35.4,34.9,30.63,NNE,22,2.0,5.0,98,0.00,,,0.00,meteohub,2013-02-26 09:30:00,
2013-02-26 09:35:00,35.8,35.2,30.66,NE,45,2.0,5.0,98,0.00,,,0.00,meteohub,2013-02-26 09:35:00,
2013-02-26 09:40:00,35.8,35.2,30.66,NNE,22,3.0,5.0,98,0.00,,,0.00,meteohub,2013-02-26 09:40:00,
2013-02-26 09:45:00,36.0,35.4,30.66,NNE,22,4.0,6.0,98,0.00,,,0.00,meteohub,2013-02-26 09:45:00,
2013-02-26 09:50:00,36.3,35.8,30.66,NNE,22,3.0,6.0,98,0.00,,,0.00,meteohub,2013-02-26 09:50:00,
2013-02-26 09:55:00,36.5,36.0,30.66,NNE,22,2.0,6.0,98,0.00,,,0.00,meteohub,2013-02-26 09:55:00,
2013-02-26 10:00:00,36.7,36.1,30.66,ENE,67,2.0,5.0,98,0.00,,,0.00,meteohub,2013-02-26 10:00:00,
2013-02-26 10:06:00,36.9,36.3,30.66,East,90,3.0,5.0,98,0.00,,,0.00,meteohub,2013-02-26 10:06:00,
2013-02-26 10:11:00,37.0,36.5,30.66,ENE,67,4.0,5.0,98,0.00,,,0.00,meteohub,2013-02-26 10:11:00,
2013-02-26 10:16:00,37.0,36.5,30.66,ENE,67,2.0,5.0,98,0.00,,,0.00,meteohub,2013-02-26 10:16:00,
2013-02-26 10:21:00,37.4,36.9,30.66,ENE,67,3.0,6.0,98,0.00,,,0.00,meteohub,2013-02-26 10:21:00,
2013-02-26 10:26:00,37.8,37.2,30.66,East,90,6.0,6.0,98,0.00,,,0.00,meteohub,2013-02-26 10:26:00,
2013-02-26 10:31:00,37.9,37.4,30.66,East,90,4.0,6.0,98,0.00,,,0.00,meteohub,2013-02-26 10:31:00,
2013-02-26 10:36:00,38.1,37.6,30.66,ESE,112,6.0,6.0,98,0.00,,,0.00,meteohub,2013-02-26 10:36:00,
2013-02-26 10:41:00,38.3,37.8,30.66,NNE,22,4.0,6.0,98,0.00,,,0.00,meteohub,2013-02-26 10:41:00,
2013-02-26 10:46:00,38.5,37.9,30.66,ENE,67,4.0,6.0,98,0.00,,,0.00,meteohub,2013-02-26 10:46:00,
2013-02-26 10:52:00,38.7,38.1,30.66,ENE,67,4.0,6.0,98,0.00,,,0.00,meteohub,2013-02-26 10:52:00,
2013-02-26 10:57:00,38.8,38.1,30.66,East,90,6.0,6.0,97,0.00,,,0.00,meteohub,2013-02-26 10:57:00,
2013-02-26 11:02:00,39.0,38.3,30.66,NE,45,4.0,7.0,97,0.00,,,0.00,meteohub,2013-02-26 11:02:00,
2013-02-26 11:07:00,39.2,38.1,30.66,NE,45,6.0,8.0,96,0.00,,,0.00,meteohub,2013-02-26 11:07:00,
2013-02-26 11:12:00,39.4,38.1,30.66,East,90,6.0,9.0,95,0.00,,,0.00,meteohub,2013-02-26 11:12:00,
2013-02-26 11:17:00,39.4,37.6,30.66,ENE,67,5.0,9.0,93,0.00,,,0.00,meteohub,2013-02-26 11:17:00,
2013-02-26 11:22:00,39.4,37.8,30.66,East,90,4.0,9.0,94,0.00,,,0.00,meteohub,2013-02-26 11:22:00,
2013-02-26 11:27:00,39.6,37.8,30.66,East,90,4.0,9.0,93,0.00,,,0.00,meteohub,2013-02-26 11:27:00,
2013-02-26 11:32:00,39.7,37.4,30.66,East,90,5.0,9.0,91,0.00,,,0.00,meteohub,2013-02-26 11:32:00,
2013-02-26 11:37:00,39.9,37.6,30.66,NE,45,6.0,9.0,91,0.00,,,0.00,meteohub,2013-02-26 11:37:00,
2013-02-26 11:42:00,40.1,37.0,30.66,East,90,5.0,9.0,89,0.00,,,0.00,meteohub,2013-02-26 11:42:00,
2013-02-26 11:47:00,40.3,37.2,30.66,NE,45,5.0,9.0,89,0.00,,,0.00,meteohub,2013-02-26 11:47:00,
2013-02-26 11:52:00,40.3,37.0,30.66,NE,45,2.0,9.0,88,0.00,,,0.00,meteohub,2013-02-26 11:52:00,
2013-02-26 11:57:00,40.5,36.9,30.66,ENE,67,5.0,6.0,87,0.00,,,0.00,meteohub,2013-02-26 11:57:00,
2013-02-26 12:02:00,40.6,37.0,30.66,East,90,6.0,7.0,87,0.00,,,0.00,meteohub,2013-02-26 12:02:00,
2013-02-26 12:08:00,41.0,36.9,30.66,East,90,6.0,8.0,85,0.00,,,0.00,meteohub,2013-02-26 12:08:00,
2013-02-26 12:13:00,41.2,35.4,30.66,ENE,67,7.0,8.0,80,0.00,,,0.00,meteohub,2013-02-26 12:13:00,
2013-02-26 12:18:00,41.4,34.7,30.66,ENE,67,6.0,8.0,77,0.00,,,0.00,meteohub,2013-02-26 12:18:00,
2013-02-26 12:23:00,41.7,34.0,30.66,SE,135,6.0,8.0,74,0.00,,,0.00,meteohub,2013-02-26 12:23:00,
2013-02-26 12:28:00,41.7,33.1,30.66,East,90,2.0,10.0,71,0.00,,,0.00,meteohub,2013-02-26 12:28:00,
2013-02-26 12:33:00,41.9,33.8,30.66,ENE,67,6.0,10.0,73,0.00,,,0.00,meteohub,2013-02-26 12:33:00,
2013-02-26 12:38:00,42.1,34.0,30.66,ENE,67,8.0,10.0,73,0.00,,,0.00,meteohub,2013-02-26 12:38:00,
2013-02-26 12:44:00,42.1,33.4,30.66,East,90,6.0,9.0,71,0.00,,,0.00,meteohub,2013-02-26 12:44:00,
2013-02-26 12:49:00,42.3,33.3,30.66,East,90,3.0,9.0,70,0.00,,,0.00,meteohub,2013-02-26 12:49:00,
2013-02-26 12:54:00,42.3,33.6,30.66,ENE,67,9.0,9.0,71,0.00,,,0.00,meteohub,2013-02-26 12:54:00,
2013-02-26 12:59:00,42.4,33.4,30.66,East,90,8.0,9.0,70,0.00,,,0.00,meteohub,2013-02-26 12:59:00,
2013-02-26 13:04:00,42.4,33.4,30.66,East,90,2.0,9.0,70,0.00,,,0.00,meteohub,2013-02-26 13:04:00,
2013-02-26 13:09:00,42.4,33.1,30.66,East,90,5.0,9.0,69,0.00,,,0.00,meteohub,2013-02-26 13:09:00,
2013-02-26 13:14:00,42.6,32.7,30.66,East,90,6.0,9.0,68,0.00,,,0.00,meteohub,2013-02-26 13:14:00,
2013-02-26 13:19:00,42.6,32.4,30.63,ESE,112,5.0,9.0,67,0.00,,,0.00,meteohub,2013-02-26 13:19:00,
2013-02-26 13:25:00,42.6,32.0,30.63,ESE,112,5.0,10.0,66,0.00,,,0.00,meteohub,2013-02-26 13:25:00,
2013-02-26 13:30:00,42.8,32.9,30.63,SSE,157,6.0,10.0,68,0.00,,,0.00,meteohub,2013-02-26 13:30:00,
2013-02-26 13:35:00,42.8,33.3,30.63,East,90,6.0,8.0,69,0.00,,,0.00,meteohub,2013-02-26 13:35:00,
2013-02-26 13:40:00,42.8,32.9,30.63,East,90,5.0,10.0,68,0.00,,,0.00,meteohub,2013-02-26 13:40:00,
2013-02-26 13:45:00,42.8,32.9,30.63,East,90,4.0,10.0,68,0.00,,,0.00,meteohub,2013-02-26 13:45:00,
2013-02-26 13:50:00,42.8,32.9,30.63,ESE,112,6.0,10.0,68,0.00,,,0.00,meteohub,2013-02-26 13:50:00,
2013-02-26 13:55:00,42.8,32.9,30.63,ESE,112,8.0,10.0,68,0.00,,,0.00,meteohub,2013-02-26 13:55:00,
2013-02-26 14:00:00,42.8,32.5,30.63,ESE,112,4.0,9.0,67,0.00,,,0.00,meteohub,2013-02-26 14:00:00,
2013-02-26 14:05:00,42.8,32.9,30.63,SSE,157,5.0,10.0,68,0.00,,,0.00,meteohub,2013-02-26 14:05:00,
2013-02-26 14:11:00,42.8,32.9,30.63,SE,135,5.0,10.0,68,0.00,,,0.00,meteohub,2013-02-26 14:11:00,
2013-02-26 14:16:00,42.8,33.3,30.63,East,90,4.0,10.0,69,0.00,,,0.00,meteohub,2013-02-26 14:16:00,
2013-02-26 14:21:00,42.8,33.6,30.63,ESE,112,6.0,10.0,70,0.00,,,0.00,meteohub,2013-02-26 14:21:00,
2013-02-26 14:26:00,42.6,33.8,30.63,ESE,112,8.0,10.0,71,0.00,,,0.00,meteohub,2013-02-26 14:26:00,
2013-02-26 14:31:00,42.8,34.0,30.63,ESE,112,5.0,11.0,71,0.00,,,0.00,meteohub,2013-02-26 14:31:00,
2013-02-26 14:36:00,42.6,34.2,30.63,East,90,4.0,11.0,72,0.00,,,0.00,meteohub,2013-02-26 14:36:00,
2013-02-26 14:41:00,42.6,34.2,30.63,East,90,6.0,11.0,72,0.00,,,0.00,meteohub,2013-02-26 14:41:00,
2013-02-26 14:46:00,42.6,34.2,30.63,East,90,6.0,10.0,72,0.00,,,0.00,meteohub,2013-02-26 14:46:00,
2013-02-26 14:51:00,42.4,34.0,30.63,ESE,112,7.0,9.0,72,0.00,,,0.00,meteohub,2013-02-26 14:51:00,
2013-02-26 14:57:00,42.6,34.2,30.63,East,90,5.0,11.0,72,0.00,,,0.00,meteohub,2013-02-26 14:57:00,
2013-02-26 15:02:00,42.4,34.0,30.63,East,90,5.0,11.0,72,0.00,,,0.00,meteohub,2013-02-26 15:02:00,
2013-02-26 15:07:00,42.4,34.0,30.63,East,90,6.0,11.0,72,0.00,,,0.00,meteohub,2013-02-26 15:07:00,
2013-02-26 15:12:00,42.4,33.6,30.63,East,90,6.0,9.0,71,0.00,,,0.00,meteohub,2013-02-26 15:12:00,
2013-02-26 15:17:00,42.4,34.0,30.63,ESE,112,5.0,9.0,72,0.00,,,0.00,meteohub,2013-02-26 15:17:00,
2013-02-26 15:22:00,42.4,34.0,30.63,ESE,112,6.0,9.0,72,0.00,,,0.00,meteohub,2013-02-26 15:22:00,
2013-02-26 15:27:00,42.4,34.0,30.63,East,90,6.0,9.0,72,0.00,,,0.00,meteohub,2013-02-26 15:27:00,
2013-02-26 15:32:00,42.4,34.0,30.63,East,90,5.0,9.0,72,0.00,,,0.00,meteohub,2013-02-26 15:32:00,
2013-02-26 15:37:00,42.4,34.0,30.63,ESE,112,7.0,8.0,72,0.00,,,0.00,meteohub,2013-02-26 15:37:00,
2013-02-26 15:42:00,42.4,34.3,30.63,SE,135,7.0,9.0,73,0.00,,,0.00,meteohub,2013-02-26 15:42:00,
2013-02-26 15:48:00,42.4,34.3,30.63,ESE,112,3.0,9.0,73,0.00,,,0.00,meteohub,2013-02-26 15:48:00,
2013-02-26 15:53:00,42.3,34.2,30.63,East,90,5.0,9.0,73,0.00,,,0.00,meteohub,2013-02-26 15:53:00,
2013-02-26 15:58:00,42.3,34.2,30.63,ESE,112,4.0,7.0,73,0.00,,,0.00,meteohub,2013-02-26 15:58:00,
2013-02-26 16:03:00,42.1,34.3,30.63,ESE,112,4.0,7.0,74,0.00,,,0.00,meteohub,2013-02-26 16:03:00,
2013-02-26 16:08:00,42.1,34.3,30.63,East,90,4.0,7.0,74,0.00,,,0.00,meteohub,2013-02-26 16:08:00,
2013-02-26 16:13:00,41.9,34.2,30.63,NE,45,4.0,7.0,74,0.00,,,0.00,meteohub,2013-02-26 16:13:00,
2013-02-26 16:18:00,41.7,34.0,30.63,East,90,6.0,6.0,74,0.00,,,0.00,meteohub,2013-02-26 16:18:00,
2013-02-26 16:23:00,41.7,34.3,30.63,East,90,5.0,7.0,75,0.00,,,0.00,meteohub,2013-02-26 16:23:00,
2013-02-26 16:28:00,41.7,34.3,30.63,ESE,112,6.0,7.0,75,0.00,,,0.00,meteohub,2013-02-26 16:28:00,
2013-02-26 16:33:00,41.5,34.5,30.63,East,90,4.0,7.0,76,0.00,,,0.00,meteohub,2013-02-26 16:33:00,
2013-02-26 16:39:00,41.5,34.5,30.63,East,90,5.0,6.0,76,0.00,,,0.00,meteohub,2013-02-26 16:39:00,
2013-02-26 16:44:00,41.4,34.3,30.63,East,90,5.0,7.0,76,0.00,,,0.00,meteohub,2013-02-26 16:44:00,
2013-02-26 16:49:00,41.2,34.5,30.63,East,90,6.0,7.0,77,0.00,,,0.00,meteohub,2013-02-26 16:49:00,
2013-02-26 16:54:00,41.0,34.3,30.63,East,90,4.0,8.0,77,0.00,,,0.00,meteohub,2013-02-26 16:54:00,
2013-02-26 16:59:00,40.8,34.5,30.63,East,90,4.0,8.0,78,0.00,,,0.00,meteohub,2013-02-26 16:59:00,
2013-02-26 17:04:00,40.6,34.3,30.63,East,90,6.0,8.0,78,0.00,,,0.00,meteohub,2013-02-26 17:04:00,
2013-02-26 17:09:00,40.5,34.2,30.63,ESE,112,6.0,8.0,78,0.00,,,0.00,meteohub,2013-02-26 17:09:00,
2013-02-26 17:14:00,40.3,34.3,30.63,East,90,4.0,9.0,79,0.00,,,0.00,meteohub,2013-02-26 17:14:00,
2013-02-26 17:19:00,39.9,34.0,30.63,East,90,5.0,9.0,79,0.00,,,0.00,meteohub,2013-02-26 17:19:00,
2013-02-26 17:24:00,39.7,34.2,30.63,SE,135,4.0,9.0,80,0.00,,,0.00,meteohub,2013-02-26 17:24:00,
2013-02-26 17:30:00,39.6,34.0,30.63,East,90,4.0,9.0,80,0.00,,,0.00,meteohub,2013-02-26 17:30:00,
2013-02-26 17:35:00,39.4,34.0,30.63,East,90,3.0,9.0,81,0.00,,,0.00,meteohub,2013-02-26 17:35:00,
2013-02-26 17:40:00,39.2,33.8,30.63,East,90,6.0,6.0,81,0.00,,,0.00,meteohub,2013-02-26 17:40:00,
2013-02-26 17:45:00,38.8,34.2,30.63,ESE,112,6.0,6.0,83,0.00,,,0.00,meteohub,2013-02-26 17:45:00,
2013-02-26 17:50:00,38.8,34.2,30.63,ESE,112,3.0,6.0,83,0.00,,,0.00,meteohub,2013-02-26 17:50:00,
2013-02-26 17:55:00,38.5,33.8,30.63,East,90,3.0,6.0,83,0.00,,,0.00,meteohub,2013-02-26 17:55:00,
2013-02-26 18:00:00,38.3,34.2,30.63,East,90,5.0,6.0,85,0.00,,,0.00,meteohub,2013-02-26 18:00:00,
2013-02-26 18:05:00,38.1,34.0,30.63,SE,135,2.0,6.0,85,0.00,,,0.00,meteohub,2013-02-26 18:05:00,
2013-02-26 18:10:00,37.9,33.6,30.63,ESE,112,4.0,6.0,84,0.00,,,0.00,meteohub,2013-02-26 18:10:00,
2013-02-26 18:16:00,37.8,34.0,30.63,East,90,4.0,6.0,86,0.00,,,0.00,meteohub,2013-02-26 18:16:00,
2013-02-26 18:21:00,37.6,33.8,30.63,ESE,112,3.0,6.0,86,0.00,,,0.00,meteohub,2013-02-26 18:21:00,
2013-02-26 18:26:00,37.6,34.0,30.63,East,90,3.0,6.0,87,0.00,,,0.00,meteohub,2013-02-26 18:26:00,
2013-02-26 18:31:00,37.4,33.8,30.63,ESE,112,3.0,4.0,87,0.00,,,0.00,meteohub,2013-02-26 18:31:00,
2013-02-26 18:36:00,37.4,34.2,30.63,ESE,112,6.0,6.0,88,0.00,,,0.00,meteohub,2013-02-26 18:36:00,
2013-02-26 18:41:00,37.2,34.3,30.63,East,90,4.0,8.0,89,0.00,,,0.00,meteohub,2013-02-26 18:41:00,
2013-02-26 18:46:00,37.2,34.0,30.63,East,90,2.0,8.0,88,0.00,,,0.00,meteohub,2013-02-26 18:46:00,
2013-02-26 18:51:00,37.0,34.2,30.63,East,90,3.0,8.0,89,0.00,,,0.00,meteohub,2013-02-26 18:51:00,
2013-02-26 18:56:00,36.9,34.0,30.63,WNW,292,2.0,6.0,89,0.00,,,0.00,meteohub,2013-02-26 18:56:00,
2013-02-26 19:01:00,36.5,33.3,30.63,NNE,22,0.0,4.0,88,0.00,,,0.00,meteohub,2013-02-26 19:01:00,
2013-02-26 19:07:00,36.1,32.9,30.63,ENE,67,3.0,4.0,88,0.00,,,0.00,meteohub,2013-02-26 19:07:00,
2013-02-26 19:12:00,36.1,33.3,30.63,East,90,4.0,4.0,89,0.00,,,0.00,meteohub,2013-02-26 19:12:00,
2013-02-26 19:17:00,36.1,33.3,30.63,ENE,67,2.0,5.0,89,0.00,,,0.00,meteohub,2013-02-26 19:17:00,
2013-02-26 19:22:00,36.0,33.1,30.63,NNW,337,0.0,5.0,89,0.00,,,0.00,meteohub,2013-02-26 19:22:00,
2013-02-26 19:27:00,35.6,32.7,30.63,NE,45,0.0,5.0,89,0.00,,,0.00,meteohub,2013-02-26 19:27:00,
2013-02-26 19:32:00,35.4,32.5,30.66,East,90,0.0,3.0,89,0.00,,,0.00,meteohub,2013-02-26 19:32:00,
2013-02-26 19:37:00,35.4,32.5,30.66,NW,315,1.0,2.0,89,0.00,,,0.00,meteohub,2013-02-26 19:37:00,
2013-02-26 19:42:00,35.4,32.7,30.66,NE,45,0.0,2.0,90,0.00,,,0.00,meteohub,2013-02-26 19:42:00,
2013-02-26 19:47:00,35.4,32.7,30.66,ENE,67,3.0,3.0,90,0.00,,,0.00,meteohub,2013-02-26 19:47:00,
2013-02-26 19:52:00,35.4,32.7,30.66,NE,45,3.0,3.0,90,0.00,,,0.00,meteohub,2013-02-26 19:52:00,
2013-02-26 19:57:00,35.4,33.1,30.66,North,0,1.0,3.0,91,0.00,,,0.00,meteohub,2013-02-26 19:57:00,
2013-02-26 20:02:00,35.6,33.3,30.66,East,90,3.0,3.0,91,0.00,,,0.00,meteohub,2013-02-26 20:02:00,
2013-02-26 20:07:00,35.8,33.6,30.66,East,90,3.0,4.0,92,0.00,,,0.00,meteohub,2013-02-26 20:07:00,
2013-02-26 20:13:00,36.0,33.8,30.66,ENE,67,3.0,5.0,92,0.00,,,0.00,meteohub,2013-02-26 20:13:00,
2013-02-26 20:18:00,36.1,34.3,30.66,North,0,1.0,5.0,93,0.00,,,0.00,meteohub,2013-02-26 20:18:00,
2013-02-26 20:23:00,36.1,34.5,30.66,East,90,3.0,5.0,94,0.00,,,0.00,meteohub,2013-02-26 20:23:00,
2013-02-26 20:28:00,36.3,34.7,30.66,ENE,67,2.0,4.0,94,0.00,,,0.00,meteohub,2013-02-26 20:28:00,
2013-02-26 20:33:00,36.3,34.7,30.66,NE,45,2.0,4.0,94,0.00,,,0.00,meteohub,2013-02-26 20:33:00,
2013-02-26 20:38:00,36.3,34.7,30.66,East,90,3.0,4.0,94,0.00,,,0.00,meteohub,2013-02-26 20:38:00,
2013-02-26 20:43:00,36.3,34.7,30.66,ENE,67,2.0,3.0,94,0.00,,,0.00,meteohub,2013-02-26 20:43:00,
2013-02-26 20:49:00,36.5,35.2,30.66,North,0,3.0,3.0,95,0.00,,,0.00,meteohub,2013-02-26 20:49:00,
2013-02-26 20:54:00,36.5,35.2,30.66,ENE,67,0.0,3.0,95,0.00,,,0.00,meteohub,2013-02-26 20:54:00,
2013-02-26 20:59:00,36.5,35.2,30.66,NE,45,2.0,3.0,95,0.00,,,0.00,meteohub,2013-02-26 20:59:00,
2013-02-26 21:04:00,36.5,35.2,30.66,NNE,22,2.0,3.0,95,0.00,,,0.00,meteohub,2013-02-26 21:04:00,
2013-02-26 21:09:00,36.5,35.2,30.66,NNW,337,1.0,4.0,95,0.00,,,0.00,meteohub,2013-02-26 21:09:00,
2013-02-26 21:14:00,36.5,35.2,30.66,North,0,0.0,4.0,95,0.00,,,0.00,meteohub,2013-02-26 21:14:00,
2013-02-26 21:19:00,36.5,35.2,30.66,NNW,337,0.0,4.0,95,0.00,,,0.00,meteohub,2013-02-26 21:19:00,
2013-02-26 21:24:00,36.5,35.2,30.66,NNW,337,1.0,4.0,95,0.00,,,0.00,meteohub,2013-02-26 21:24:00,
2013-02-26 21:29:00,36.5,35.4,30.66,ENE,67,2.0,3.0,96,0.00,,,0.00,meteohub,2013-02-26 21:29:00,
2013-02-26 21:34:00,36.5,35.4,30.66,North,0,2.0,3.0,96,0.00,,,0.00,meteohub,2013-02-26 21:34:00,
2013-02-26 21:40:00,36.5,35.4,30.66,NNE,22,1.0,3.0,96,0.00,,,0.00,meteohub,2013-02-26 21:40:00,
2013-02-26 21:45:00,36.5,35.4,30.66,NNE,22,3.0,3.0,96,0.00,,,0.00,meteohub,2013-02-26 21:45:00,
2013-02-26 21:50:00,36.3,35.2,30.66,ENE,67,2.0,4.0,96,0.00,,,0.00,meteohub,2013-02-26 21:50:00,
2013-02-26 21:55:00,36.3,35.2,30.66,NE,45,2.0,4.0,96,0.00,,,0.00,meteohub,2013-02-26 21:55:00,
2013-02-26 22:00:00,36.3,35.2,30.66,NE,45,0.0,4.0,96,0.00,,,0.00,meteohub,2013-02-26 22:00:00,
2013-02-26 22:05:00,36.3,35.2,30.66,North,0,3.0,4.0,96,0.00,,,0.00,meteohub,2013-02-26 22:05:00,
2013-02-26 22:10:00,36.3,35.2,30.66,NNE,22,3.0,4.0,96,0.00,,,0.00,meteohub,2013-02-26 22:10:00,
2013-02-26 22:15:00,36.1,35.1,30.66,NE,45,1.0,4.0,96,0.00,,,0.00,meteohub,2013-02-26 22:15:00,
2013-02-26 22:20:00,36.1,35.1,30.66,NNE,22,3.0,4.0,96,0.00,,,0.00,meteohub,2013-02-26 22:20:00,
2013-02-26 22:25:00,36.1,35.1,30.66,East,90,3.0,4.0,96,0.00,,,0.00,meteohub,2013-02-26 22:25:00,
2013-02-26 22:30:00,36.0,34.9,30.66,ENE,67,3.0,5.0,96,0.00,,,0.00,meteohub,2013-02-26 22:30:00,
2013-02-26 22:36:00,36.0,34.9,30.66,NE,45,2.0,5.0,96,0.00,,,0.00,meteohub,2013-02-26 22:36:00,
2013-02-26 22:41:00,35.8,34.7,30.66,ENE,67,3.0,5.0,96,0.00,,,0.00,meteohub,2013-02-26 22:41:00,
2013-02-26 22:46:00,35.8,34.7,30.66,NE,45,2.0,5.0,96,0.00,,,0.00,meteohub,2013-02-26 22:46:00,
2013-02-26 22:51:00,35.6,34.5,30.66,NE,45,3.0,5.0,96,0.00,,,0.00,meteohub,2013-02-26 22:51:00,
2013-02-26 22:56:00,35.6,34.5,30.66,NNE,22,2.0,5.0,96,0.00,,,0.00,meteohub,2013-02-26 22:56:00,
2013-02-26 23:01:00,35.6,34.5,30.66,NE,45,2.0,4.0,96,0.00,,,0.00,meteohub,2013-02-26 23:01:00,
2013-02-26 23:06:00,35.6,34.5,30.66,NW,315,1.0,4.0,96,0.00,,,0.00,meteohub,2013-02-26 23:06:00,
2013-02-26 23:11:00,35.4,34.7,30.66,NNW,337,2.0,4.0,97,0.00,,,0.00,meteohub,2013-02-26 23:11:00,
2013-02-26 23:16:00,35.4,34.3,30.66,NW,315,2.0,3.0,96,0.00,,,0.00,meteohub,2013-02-26 23:16:00,
2013-02-26 23:21:00,35.2,34.2,30.66,WNW,292,2.0,3.0,96,0.00,,,0.00,meteohub,2013-02-26 23:21:00,
2013-02-26 23:26:00,35.1,34.0,30.66,West,270,2.0,3.0,96,0.00,,,0.00,meteohub,2013-02-26 23:26:00,
2013-02-26 23:32:00,34.9,33.8,30.66,WSW,247,2.0,3.0,96,0.00,,,0.00,meteohub,2013-02-26 23:32:00,
2013-02-26 23:37:00,34.7,33.6,30.66,WSW,247,3.0,3.0,96,0.00,,,0.00,meteohub,2013-02-26 23:37:00,
2013-02-26 23:42:00,34.5,33.3,30.66,WSW,247,2.0,3.0,95,0.00,,,0.00,meteohub,2013-02-26 23:42:00,
2013-02-26 23:47:00,34.3,33.1,30.66,WSW,247,0.0,3.0,95,0.00,,,0.00,meteohub,2013-02-26 23:47:00,
2013-02-26 23:52:00,34.2,32.9,30.66,SW,225,2.0,3.0,95,0.00,,,0.00,meteohub,2013-02-26 23:52:00,
2013-02-26 23:57:00,34.0,32.7,30.66,SSW,202,2.0,3.0,95,0.00,,,0.00,meteohub,2013-02-26 23:57:00,